Wind_Speed
8 8 7 7 7 8 7 7 6 6 6 6 8 8 9 10 11 12 13 14 14 14 13 13 14 14 15 15 15 15 14 13 13 13 13 13 13 13 13 13 14 14 14 14 14 14 13 13 13 12 12 12 12 12 12 13 13 13 13 13 13 13 12 12 11 11 11 11 10 9 9 8 7 7 7 6 5 4 5 5 5 6 7 9 10
8 8 8 8 8 8 7 7 6 6 6 6 7 7 8 9 10 11 12 13 14 13 13 14 14 14 14 14 14 14 13 13 13 13 12 12 12 12 12 13 13 13 13 13 12 12 12 13 13 13 13 12 12 12 12 12 12 13 12 12 13 13 13 12 12 12 12 11 11 11 11 10 10 9 9 8 7 5 5 5 5 4 4 5 7
9 8 8 8 8 8 7 7 7 7 7 6 6 7 7 8 9 10 11 12 12 12 13 13 13 14 14 13 13 13 13 12 12 12 11 12 12 12 11 11 11 11 11 11 11 10 9 9 10 11 12 13 12 12 13 12 12 12 11 11 11 11 11 11 11 11 11 11 10 10 10 10 10 11 11 11 9 7 6 5 5 5 3 3 4
10 9 9 9 9 8 8 9 9 8 7 6 6 7 7 8 9 10 10 10 11 11 11 12 12 12 13 13 13 13 12 12 12 11 11 11 12 11 11 11 11 11 11 11 10 10 9 8 8 9 10 11 12 12 13 13 13 12 12 11 11 11 10 11 10 10 10 10 9 9 9 9 9 10 11 11 11 9 8 7 7 6 5 4 3
10 10 11 11 10 9 9 10 9 8 6 6 6 6 7 8 9 9 9 10 10 10 11 11 12 12 12 12 12 12 12 12 11 11 11 12 12 12 12 12 12 12 12 12 11 11 10 9 8 8 9 9 10 11 11 12 13 13 13 13 13 12 12 11 11 11 10 10 10 9 8 8 8 9 10 10 10 10 10 9 9 9 8 7 6
11 11 12 12 12 11 11 11 10 8 8 8 7 7 8 9 9 9 9 10 10 10 11 11 11 12 12 12 12 12 12 12 11 12 12 12 13 13 12 12 13 12 12 12 12 12 11 10 9 10 10 10 10 10 11 11 12 12 13 13 13 13 13 13 12 12 11 11 11 10 9 8 8 9 10 9 9 8 9 10 11 11 11 10 9
11 12 12 13 13 12 12 12 12 11 10 10 9 9 9 10 10 10 10 10 10 11 11 11 12 12 12 12 12 12 12 12 12 12 12 13 13 13 13 13 13 13 13 12 12 13 12 11 11 11 11 11 11 12 12 12 12 12 13 12 12 13 13 13 13 12 12 12 12 11 10 9 9 10 10 9 8 7 8 10 11 12 12 12 12
12 12 13 13 14 14 14 14 14 13 13 12 11 11 11 11 11 11 11 11 11 11 11 12 12 12 13 13 13 13 13 13 13 13 14 14 14 14 14 14 14 14 14 14 13 13 13 12 12 12 12 12 12 13 13 13 13 13 14 13 13 13 13 13 13 13 13 12 12 12 11 10 9 10 10 10 9 8 9 11 11 11 12 13 13
13 13 13 13 14 14 15 15 15 15 14 13 13 12 12 12 12 12 12 13 12 12 12 13 13 14 14 14 14 15 15 15 15 15 15 15 15 15 15 15 15 15 15 15 14 14 14 14 13 13 13 13 13 13 14 14 14 15 15 15 15 14 14 14 14 14 14 14 14 13 12 11 11 10 10 10 9 9 11 12 12 11 11 12 13
15 14 14 14 14 15 15 15 15 15 15 14 14 13 13 13 13 14 14 14 14 14 14 14 15 15 16 16 16 16 17 17 17 17 17 17 17 17 17 17 16 16 16 16 15 15 15 15 14 14 14 14 14 14 15 15 15 16 16 16 16 16 16 16 16 16 15 15 15 15 14 13 13 12 12 11 10 10 11 13 13 12 11 12 12
16 16 15 15 15 15 15 15 15 15 15 15 14 15 14 14 15 15 15 15 15 15 15 16 17 17 18 18 18 18 18 18 18 18 18 18 18 18 18 18 18 17 17 16 16 16 16 16 15 15 15 15 15 15 15 16 16 16 17 17 17 17 17 17 17 17 16 16 16 15 15 15 14 14 14 13 12 12 12 13 14 13 12 12 12
15 16 16 15 15 15 15 15 16 16 15 15 15 16 16 16 17 17 17 17 17 17 17 17 18 19 19 20 20 20 20 20 20 20 20 20 20 20 20 20 19 19 18 18 17 17 17 16 16 16 16 16 16 16 16 17 17 17 17 17 17 17 18 18 18 18 18 17 17 16 16 16 16 16 16 15 14 14 14 14 14 14 13 13 13
15 16 16 15 15 16 16 16 16 16 16 16 16 17 17 18 18 19 19 18 18 18 18 18 19 20 21 21 21 22 21 21 21 21 21 21 21 21 21 21 21 21 20 20 19 19 18 18 18 17 17 17 17 17 18 18 18 18 18 18 18 18 18 18 18 19 19 19 18 18 17 17 17 17 17 17 16 16 16 16 16 15 15 14 14
15 16 16 16 16 16 16 16 16 17 17 17 18 18 18 19 19 19 19 19 19 19 19 19 20 20 21 22 22 22 23 23 23 23 22 23 23 23 23 23 23 23 22 22 21 21 20 20 19 19 19 19 19 19 19 19 19 20 20 19 19 19 19 19 19 19 19 19 19 19 19 18 18 18 18 18 18 17 16 17 17 17 17 16 15
15 16 16 16 17 17 17 16 17 18 18 18 19 19 19 19 19 19 19 20 20 20 19 19 20 20 21 21 21 22 22 23 23 23 24 24 24 24 24 24 24 24 24 24 23 23 22 22 21 21 21 20 20 20 21 21 21 21 21 21 21 21 21 20 20 20 20 20 21 21 20 20 20 19 19 18 18 18 18 18 19 19 18 18 17
16 16 16 17 17 18 18 18 18 18 19 19 19 19 19 19 19 19 19 20 21 20 19 19 20 20 20 20 21 21 21 22 23 24 24 24 25 25 25 26 26 26 26 25 25 24 24 24 23 23 23 22 22 22 22 22 22 22 22 22 22 23 22 22 22 22 22 22 22 22 22 22 22 22 21 20 20 19 19 19 19 19 19 19 19
16 17 17 18 18 19 20 20 20 20 20 20 20 20 20 20 20 20 20 21 21 20 19 20 20 20 20 20 20 20 21 21 23 23 24 25 25 26 26 27 27 27 27 26 26 26 26 25 25 25 25 24 24 24 23 23 23 23 23 23 23 24 24 24 24 23 23 23 23 23 23 23 23 23 23 22 22 21 20 20 20 20 20 19 19
18 18 18 18 19 20 21 21 21 21 21 21 21 21 21 21 21 21 21 22 21 20 20 20 20 20 20 20 20 20 20 21 22 23 24 25 25 26 26 27 27 27 27 27 27 27 27 27 26 26 26 26 25 25 25 24 24 24 24 24 24 24 25 25 25 25 25 25 25 25 25 25 25 24 24 23 23 22 22 21 21 21 20 20 20
18 19 19 18 19 20 21 22 22 23 23 23 23 23 23 22 22 22 22 23 22 21 21 21 21 21 21 20 20 20 20 20 21 23 24 25 25 26 27 27 28 28 28 28 28 28 28 27 27 27 27 26 26 26 26 25 25 25 26 26 26 26 26 26 26 26 26 27 27 26 26 26 26 25 25 24 24 23 23 22 22 21 21 21 21
18 18 19 19 20 20 21 22 22 23 24 24 24 24 24 24 24 23 23 23 23 23 22 22 22 22 22 21 21 21 20 20 20 22 23 24 24 25 26 27 27 28 28 29 29 29 29 28 28 28 27 27 27 27 27 27 27 27 27 27 27 27 27 27 27 28 28 28 28 28 28 27 27 26 26 25 25 24 24 24 23 23 22 22 22
16 17 18 19 19 20 21 22 23 23 24 25 25 26 26 26 26 25 25 25 24 24 24 24 24 23 23 22 22 22 21 20 20 21 22 22 23 24 24 25 26 27 28 29 29 30 30 30 29 29 28 28 28 28 28 28 28 28 28 28 28 28 28 28 28 28 29 29 29 29 29 28 28 27 26 26 25 25 25 25 24 24 23 23 23
14 15 16 18 18 20 21 22 23 24 24 25 26 27 27 27 27 27 27 27 26 26 25 25 25 25 24 24 23 23 22 21 20 21 21 21 22 22 23 23 24 25 27 28 29 29 30 30 29 29 28 28 28 28 28 28 28 28 28 28 28 28 28 28 28 29 29 29 29 29 29 29 28 28 27 26 25 25 25 25 25 24 23 22 22
14 14 16 17 19 19 20 21 22 24 25 25 27 27 28 28 29 29 29 28 28 27 27 27 27 27 26 26 25 24 23 22 21 21 21 21 21 21 21 22 22 23 25 26 27 28 28 28 28 27 27 26 27 27 27 27 27 27 27 27 27 27 28 28 28 29 29 29 29 29 29 29 28 28 27 26 26 25 24 24 24 23 23 22 21
16 17 18 18 18 18 19 20 22 23 24 25 26 27 28 29 30 30 30 30 30 29 29 29 29 28 28 27 26 26 25 24 23 22 21 21 21 21 21 21 21 22 23 23 24 25 26 26 26 26 25 25 25 25 25 25 25 26 26 26 26 27 27 28 28 28 29 29 29 29 28 28 27 27 27 26 26 25 25 24 23 23 23 22 21
21 21 20 19 18 19 19 20 21 22 24 25 26 27 28 29 30 31 31 31 31 31 30 30 30 30 29 29 28 28 27 27 25 24 23 22 22 21 21 21 21 22 22 22 22 23 24 24 25 25 24 24 24 24 24 24 24 25 25 25 26 26 26 27 27 28 28 29 29 29 29 28 27 27 27 27 26 25 25 24 23 23 23 22 22
24 24 22 21 21 21 21 21 22 23 24 25 26 27 27 28 29 30 31 32 32 32 31 31 31 31 30 30 30 29 29 29 28 27 25 24 23 22 22 22 22 22 22 22 22 22 23 23 24 24 24 24 24 24 24 24 24 24 24 24 24 24 25 26 26 27 28 28 29 29 29 28 27 27 27 26 26 25 24 24 23 23 22 22 22
26 25 24 23 23 22 23 23 23 23 24 25 26 26 26 28 29 30 31 31 32 32 32 32 32 32 32 32 31 31 31 30 30 29 27 26 25 24 23 23 22 23 22 22 22 22 22 23 23 23 24 24 24 24 24 23 23 24 24 23 23 23 24 24 25 26 27 28 29 29 29 28 27 27 27 27 27 25 24 24 23 23 23 22 22
27 26 25 25 24 23 23 24 24 24 25 26 27 26 27 28 28 29 30 31 32 32 32 33 33 33 33 33 33 32 32 32 31 30 29 27 26 26 25 25 24 24 23 23 23 23 23 23 23 23 23 23 24 24 24 24 24 24 23 23 23 23 23 23 24 25 26 27 28 28 28 28 27 27 27 27 27 25 24 24 24 23 23 23 23
27 25 25 25 25 25 25 25 25 25 26 27 28 27 27 28 28 28 29 30 31 32 33 34 34 34 34 34 34 34 33 33 32 31 30 29 28 28 27 27 26 26 25 25 24 24 24 24 23 23 23 23 24 24 25 25 25 24 24 23 23 23 23 23 23 24 25 26 26 27 27 27 27 27 27 28 26 25 25 24 24 24 24 24 24
25 24 25 25 25 27 27 26 26 27 28 29 29 28 28 28 28 28 29 30 30 32 33 33 33 34 34 34 34 34 34 34 33 32 31 30 29 29 29 28 28 28 27 26 26 25 25 25 25 24 24 23 24 24 25 26 25 25 24 23 23 23 22 23 23 23 24 24 25 25 26 26 27 26 27 27 26 25 24 24 24 24 25 25 26
25 26 26 25 27 28 28 28 28 29 30 30 30 29 29 28 28 29 30 30 30 32 32 32 33 33 34 34 35 35 35 34 33 32 31 31 31 30 30 30 29 29 29 28 28 27 27 27 26 26 25 24 24 24 25 25 25 25 25 24 23 23 23 23 23 23 23 23 23 24 25 26 26 26 26 26 25 25 25 25 25 25 26 26 27
27 28 27 29 31 31 31 31 30 31 31 31 31 30 29 29 29 30 30 30 31 32 32 32 32 33 34 35 35 35 35 34 33 33 32 32 32 32 32 31 31 30 30 29 29 29 28 28 28 27 27 26 25 24 24 25 25 25 25 24 24 23 23 23 23 23 23 23 23 24 25 25 25 25 25 25 24 24 24 24 25 25 25 26 26
29 30 31 32 33 33 34 35 34 33 32 32 32 31 30 30 31 30 30 31 32 32 32 32 32 33 34 35 35 35 35 34 34 33 33 33 33 33 33 33 33 32 31 30 30 29 29 30 29 29 28 27 26 25 25 25 25 25 25 25 24 24 24 24 24 24 24 24 24 24 25 26 25 25 24 23 23 22 22 23 23 24 24 25 26
32 34 34 33 32 32 34 35 36 35 33 33 32 31 31 32 32 31 31 32 32 32 32 32 33 33 34 34 34 35 34 34 34 34 33 33 33 34 34 34 34 33 33 32 31 31 30 30 30 30 29 28 27 26 26 26 25 25 25 25 25 25 25 25 25 25 25 25 25 25 26 26 26 25 23 22 22 21 22 22 23 23 24 25 26
35 36 36 33 31 30 31 33 35 36 36 34 33 32 31 32 33 32 32 32 32 32 32 33 33 33 34 34 34 34 34 34 34 34 34 34 34 35 35 35 34 34 34 34 33 32 32 31 31 30 30 29 29 28 27 27 26 26 26 26 26 26 26 26 26 27 27 26 26 26 27 27 26 25 24 23 23 23 23 23 23 24 25 26 27
36 37 36 34 31 28 28 30 32 34 36 36 34 33 33 34 34 33 33 32 32 32 32 33 33 33 33 33 34 33 33 33 34 34 34 34 35 35 36 35 36 35 35 35 35 34 33 32 32 31 31 30 30 29 28 28 27 27 27 27 26 26 27 27 27 27 28 27 27 28 27 27 27 26 25 24 24 24 24 24 24 24 25 27 28
36 36 37 35 30 26 26 28 29 30 34 36 37 36 35 35 35 34 34 33 33 32 32 33 33 33 32 32 32 32 33 33 34 34 34 35 35 36 36 36 36 36 36 36 36 35 34 34 33 32 31 31 31 30 30 29 28 28 28 28 28 27 27 27 27 28 28 28 28 28 28 28 27 27 26 26 26 26 26 26 25 25 26 27 29
36 37 37 35 30 27 27 27 28 29 31 34 38 38 36 36 36 36 35 35 34 33 33 32 32 31 31 30 31 31 33 33 34 34 34 35 35 36 37 37 37 37 37 37 37 36 35 35 34 33 32 32 31 30 30 30 29 29 29 29 29 28 27 27 27 28 29 29 29 29 28 28 28 28 28 28 27 27 28 28 27 27 27 28 30
36 37 37 35 32 30 29 29 29 29 30 32 36 39 39 38 38 37 36 35 34 33 31 29 29 29 29 30 30 31 32 33 34 34 35 35 36 37 37 38 38 38 38 38 38 37 36 35 34 33 32 32 32 31 31 30 29 29 28 29 29 28 27 26 26 28 29 30 30 29 29 29 29 29 29 29 29 29 29 29 29 29 28 29 31
35 37 37 35 34 32 30 29 29 29 30 31 34 38 39 39 39 38 36 34 32 30 28 27 27 28 29 29 30 31 32 32 33 34 35 36 37 37 38 38 38 38 38 38 38 37 36 35 34 34 33 33 33 32 32 31 29 28 27 28 28 28 27 26 27 28 30 31 31 30 30 30 30 30 30 31 31 31 31 31 31 31 31 31 32
35 35 35 34 33 31 30 29 29 30 31 30 31 35 38 38 37 35 33 31 30 28 27 27 27 28 29 29 29 30 31 31 32 33 34 36 37 38 38 39 39 39 39 38 38 37 36 35 35 34 34 34 34 34 33 32 30 28 26 26 27 28 27 27 27 29 30 31 31 31 31 31 30 31 31 32 32 33 33 33 33 33 33 33 34
34 33 32 32 31 31 30 30 30 30 30 29 30 32 35 37 35 32 31 30 29 28 27 27 28 29 29 28 27 28 29 29 31 33 34 35 36 37 38 39 39 39 39 38 38 38 36 36 35 34 34 35 35 36 35 33 32 30 27 24 24 27 29 28 28 29 30 31 31 31 31 31 31 32 32 33 34 34 35 35 35 35 35 35 35
33 33 31 32 32 30 29 28 28 28 29 29 29 30 32 34 34 33 32 31 30 28 28 28 27 26 25 25 25 25 27 28 30 32 33 35 36 37 38 38 38 38 38 39 38 38 37 36 35 34 34 35 35 36 36 34 32 30 29 25 22 24 28 29 28 29 30 30 31 31 31 32 32 33 33 34 35 36 36 37 37 37 37 36 36
32 32 31 31 30 27 25 25 25 26 28 29 29 30 32 33 34 33 33 31 29 28 27 25 23 21 20 21 22 23 25 28 30 32 33 34 35 35 36 36 37 37 38 38 38 37 37 36 35 35 35 35 35 35 35 34 32 30 29 27 23 23 27 29 28 28 30 29 30 31 32 32 32 33 34 35 36 36 37 37 37 37 37 37 36
32 32 30 28 26 23 24 24 25 26 27 28 29 31 32 33 33 33 33 30 28 26 23 19 17 16 17 19 21 23 25 28 29 31 32 32 33 33 34 35 36 36 37 38 38 37 37 36 36 36 35 35 35 35 35 34 33 31 30 28 26 24 26 29 29 29 29 29 29 31 32 33 33 34 35 36 36 36 36 36 36 36 36 36 35
30 30 27 25 23 23 24 25 25 25 25 27 28 29 30 31 32 31 29 25 22 20 16 14 14 15 17 19 21 24 25 27 29 30 30 31 32 32 33 33 34 35 36 37 37 37 37 37 37 37 36 35 34 34 34 34 33 32 31 29 28 27 27 28 30 30 30 30 31 32 33 34 35 35 36 37 36 36 36 36 36 35 36 36 36
27 27 26 24 23 23 23 24 24 24 24 25 27 28 28 29 30 28 26 23 20 17 14 14 14 15 17 19 21 23 25 26 28 29 30 30 31 31 32 32 33 34 35 36 36 37 38 38 39 38 37 35 34 34 34 34 34 33 32 30 30 30 29 29 31 32 31 31 31 33 35 35 36 35 35 35 35 35 35 36 36 36 36 36 37
25 25 26 25 24 24 24 24 23 23 23 24 25 26 27 28 28 26 25 23 20 17 15 14 14 14 16 18 20 22 23 25 26 28 29 30 30 30 31 32 33 34 34 35 37 37 38 39 40 39 38 37 35 34 34 33 34 34 33 33 32 32 32 31 32 33 33 32 31 32 34 36 36 35 34 33 32 34 34 35 35 35 36 37 39
24 25 25 25 26 26 26 25 24 24 23 23 24 25 26 27 27 27 25 23 20 18 17 15 14 15 16 18 20 21 22 23 24 26 28 29 29 30 30 31 32 33 34 36 37 37 38 39 40 40 40 38 37 35 35 34 34 34 34 34 34 34 33 34 34 34 34 35 33 32 32 34 34 33 33 32 31 32 32 33 33 34 35 37 39
25 25 26 26 27 27 26 25 24 23 23 23 24 25 26 27 28 28 26 24 22 20 18 16 15 15 17 19 20 21 21 21 22 24 26 28 29 30 31 31 32 33 34 35 36 37 38 39 40 41 41 40 38 37 36 35 35 35 35 34 35 35 34 34 35 35 35 37 38 36 34 34 34 31 29 30 32 33 32 32 33 33 34 36 38
27 26 26 25 24 24 24 24 23 23 23 23 24 25 26 27 28 27 26 25 23 21 19 17 16 16 18 20 20 21 20 20 21 22 24 27 28 30 31 32 32 33 34 35 36 37 38 39 40 41 42 41 39 38 37 37 36 36 35 35 35 35 35 34 34 35 37 38 40 40 39 39 38 34 30 28 30 32 32 32 33 33 33 34 36
Wind_Direction
209 207 199 196 197 198 199 202 202 211 227 239 239 233 231 234 236 237 240 240 239 238 238 239 239 239 238 237 235 234 234 234 236 237 238 239 238 237 237 237 238 239 239 238 238 237 235 235 233 229 227 227 230 230 230 229 228 228 228 230 233 236 240 243 247 250 254 259 262 265 268 271 273 274 278 283 296 315 330 345 4 18 24 25 20
208 207 205 203 200 198 196 201 203 205 211 225 237 237 234 234 235 238 240 242 243 242 241 239 239 240 242 245 245 245 246 247 249 251 254 255 255 254 253 251 251 251 251 249 247 244 240 238 236 234 232 231 231 233 234 232 230 228 227 227 229 233 239 243 248 251 254 258 260 262 263 263 264 264 265 266 269 277 292 309 325 347 7 16 17
209 207 208 211 207 203 201 205 205 203 203 210 226 232 233 234 236 237 237 238 240 242 242 242 242 242 244 247 250 254 255 257 259 261 264 265 266 265 265 263 263 264 264 263 260 256 252 248 245 242 241 242 240 239 240 241 239 237 234 230 229 230 234 239 243 248 252 255 258 260 261 261 261 263 265 265 262 258 258 270 285 298 316 337 352
220 214 213 217 216 215 216 217 210 206 204 208 219 229 231 230 234 237 239 240 241 244 244 246 248 249 249 250 252 253 255 257 260 263 265 267 268 268 268 268 268 271 274 273 271 269 267 262 257 253 248 248 248 246 246 247 248 247 247 245 243 240 239 240 242 246 251 254 256 257 258 258 258 259 260 263 263 259 252 249 257 265 267 271 284
230 225 222 222 222 224 229 231 225 220 222 224 225 231 235 233 234 237 242 246 248 251 251 251 251 253 254 256 255 253 255 255 258 261 263 265 267 268 269 269 270 272 275 276 276 274 272 268 262 257 255 253 253 252 250 251 252 252 251 252 253 254 253 252 252 253 255 258 258 256 255 255 255 254 254 256 260 260 260 255 250 249 249 248 247
237 235 234 232 229 229 235 239 239 237 240 243 240 238 240 242 243 244 248 252 256 257 258 257 255 256 258 258 258 257 257 257 258 259 259 261 263 265 267 268 269 268 269 271 273 274 272 268 263 258 257 256 256 256 255 255 256 258 256 253 253 255 257 258 259 258 258 259 259 258 255 252 251 254 255 255 257 258 259 257 252 248 248 249 246
247 246 243 240 238 236 237 240 242 243 245 248 249 244 242 245 249 252 255 258 262 263 263 262 260 259 259 260 260 260 260 260 259 258 258 259 261 263 265 266 267 267 266 266 266 268 268 264 260 256 254 252 252 253 254 256 256 258 260 259 256 256 257 258 260 260 261 260 260 259 256 252 247 252 257 258 258 258 256 254 252 251 251 252 253
259 258 253 248 246 244 241 240 242 243 246 248 251 249 246 247 249 252 257 259 260 263 265 265 264 262 262 262 262 263 263 263 262 261 261 261 262 264 266 267 268 269 268 267 265 264 264 262 260 257 254 250 249 250 251 252 254 254 256 258 258 257 257 258 259 259 260 261 261 261 260 256 250 249 253 257 258 255 254 255 253 253 253 253 256
268 266 262 256 252 249 247 245 244 244 246 247 249 249 247 249 250 251 254 257 258 260 262 264 264 264 263 263 263 264 265 265 265 264 264 264 264 264 264 265 264 264 265 265 264 263 261 259 258 256 254 252 249 249 248 248 250 250 251 253 254 255 255 257 258 258 258 258 258 259 260 258 257 253 253 255 255 252 253 257 256 251 250 252 253
275 273 269 264 259 256 254 252 250 249 248 247 248 247 246 247 249 251 253 257 259 260 260 262 263 263 263 263 263 263 263 264 264 265 265 265 264 263 262 260 259 257 256 256 257 258 258 257 255 254 253 252 251 251 250 250 249 249 249 249 250 252 254 256 258 259 259 258 257 257 257 258 258 257 255 254 253 251 251 256 260 256 251 250 251
277 278 276 272 268 264 261 258 257 255 252 250 248 247 246 245 247 249 252 255 257 258 259 261 262 261 260 260 260 260 261 262 263 264 265 265 265 264 263 260 258 255 252 250 249 250 251 252 252 253 252 252 251 251 251 251 251 250 250 249 249 250 251 253 256 259 260 259 259 258 259 259 259 258 256 254 252 252 251 252 257 260 258 254 253
276 278 280 277 274 272 268 265 263 260 257 254 250 248 246 245 245 246 249 252 254 256 258 259 260 260 260 259 258 257 257 258 259 261 262 262 263 263 263 262 260 258 255 252 250 249 248 248 249 250 250 251 250 250 250 250 250 250 250 250 249 249 250 250 252 254 256 257 258 258 259 259 260 260 259 257 254 252 252 253 254 257 258 256 255
274 275 279 278 275 273 272 270 267 265 261 257 253 249 247 246 244 245 248 250 253 255 256 258 260 260 261 260 259 258 257 257 256 257 257 257 258 259 259 259 259 258 257 255 254 252 251 249 248 248 247 248 249 249 249 249 249 249 249 249 249 250 250 250 251 251 253 255 256 257 257 257 257 258 260 261 259 255 255 257 258 257 256 256 255
273 273 274 275 274 272 271 269 268 265 263 259 255 252 250 248 247 248 249 251 253 254 256 259 261 262 262 262 262 261 260 259 258 257 255 254 254 254 254 255 255 255 255 255 254 253 253 252 251 250 249 248 248 248 249 248 248 247 246 246 246 247 247 248 250 251 252 254 256 257 258 257 257 257 258 260 261 261 259 259 261 261 261 259 258
273 272 271 271 271 271 271 268 266 264 263 262 259 257 255 254 254 254 254 255 255 257 261 264 266 267 266 265 265 264 264 263 261 259 257 254 252 251 251 251 251 251 252 252 252 252 252 252 252 252 251 250 249 248 248 248 247 246 245 244 244 244 244 244 245 246 248 250 252 255 257 259 260 260 260 259 260 260 258 257 258 261 263 265 264
274 274 272 271 270 270 270 267 265 264 263 262 262 262 261 262 261 261 260 259 260 263 267 271 272 272 271 269 269 268 268 267 265 262 259 256 253 252 251 250 250 250 251 251 251 252 252 252 253 253 252 251 250 249 248 247 247 246 245 244 243 243 243 243 243 243 244 245 247 249 252 255 258 259 260 260 259 259 258 257 258 259 261 264 267
275 276 275 273 272 271 271 269 268 266 263 262 261 261 261 263 264 264 263 262 262 266 270 273 274 274 273 272 271 271 271 271 269 266 262 259 256 254 252 251 251 251 251 251 251 251 251 251 251 251 251 251 250 249 248 247 247 246 245 244 243 243 243 243 243 243 243 244 244 245 247 249 252 254 257 258 259 259 260 260 260 260 260 261 264
275 275 275 274 273 273 273 273 272 269 267 264 262 261 260 260 262 262 262 263 265 268 271 273 273 272 271 271 270 270 271 272 272 270 267 264 260 258 256 255 253 253 252 252 252 252 251 251 250 250 249 249 248 247 246 245 245 245 244 244 243 243 243 243 243 243 243 244 243 243 243 245 246 249 251 254 255 257 258 260 260 260 261 262 263
276 274 274 273 272 272 272 272 273 272 270 268 266 264 263 261 261 262 262 265 267 270 271 273 272 271 270 269 269 268 269 270 271 271 269 267 265 263 260 259 258 256 255 255 254 254 253 252 251 250 249 249 248 247 245 244 243 243 243 243 244 243 243 243 243 243 243 243 243 243 243 242 243 244 245 247 250 252 254 256 256 258 260 261 264
276 275 275 273 271 270 270 270 271 271 271 270 269 268 267 266 265 264 264 266 268 269 271 271 271 270 270 269 269 268 269 270 271 270 269 268 266 264 262 261 260 258 257 256 256 255 254 253 252 251 250 249 249 248 248 247 246 245 244 244 244 244 243 243 243 243 242 243 243 243 243 242 242 242 242 243 245 247 250 251 252 254 256 258 262
276 273 272 272 271 271 271 270 269 270 270 269 269 268 268 268 267 266 266 266 268 268 269 269 269 269 270 270 269 269 269 271 272 271 270 268 266 264 263 261 259 258 257 256 255 254 253 252 251 250 250 249 249 249 250 250 249 249 248 247 246 245 245 244 244 243 243 242 242 242 243 243 242 241 241 241 243 244 247 249 250 250 251 253 255
276 274 273 273 271 270 270 269 269 269 269 269 268 267 267 267 267 267 266 267 267 268 269 268 269 269 270 271 271 270 271 272 273 272 269 267 265 264 263 261 259 257 256 254 254 253 252 252 250 250 250 250 251 251 252 253 253 252 251 250 249 248 247 247 246 245 245 244 243 242 243 243 242 242 241 241 241 242 244 246 247 248 248 248 250
277 274 270 268 268 268 268 269 269 269 268 268 268 267 266 266 267 267 267 267 268 269 269 270 270 270 271 272 273 273 273 274 274 273 271 269 267 265 264 262 260 258 256 255 254 253 253 252 251 252 252 253 255 255 255 256 256 255 255 254 253 252 250 250 249 248 247 246 245 244 243 243 243 242 241 241 240 240 241 242 244 245 245 245 245
274 269 267 269 272 273 271 270 269 269 269 268 268 268 267 267 267 267 267 267 268 269 270 271 271 272 273 274 276 276 276 276 276 276 275 273 271 270 269 266 263 260 258 257 256 256 255 254 254 254 255 256 257 258 257 257 258 258 257 257 256 255 253 252 251 251 250 249 247 246 244 243 242 242 241 241 240 239 239 239 240 240 241 241 241
272 272 275 277 276 273 270 268 268 268 268 268 268 268 267 267 267 268 268 268 268 269 270 271 272 273 275 276 277 278 279 279 278 278 277 275 274 273 272 271 268 264 262 260 259 258 257 256 255 255 256 257 258 259 260 260 261 261 261 260 260 259 257 256 254 253 252 250 249 247 246 244 242 241 241 242 242 240 239 238 238 238 238 239 239
275 277 278 276 271 269 268 267 266 266 266 266 266 266 266 267 268 268 267 268 268 269 271 271 272 273 274 276 277 278 278 279 279 279 279 279 278 277 276 275 273 269 266 264 262 260 258 257 256 256 256 258 260 262 264 265 265 264 264 263 262 261 260 258 256 254 253 251 250 249 247 244 242 241 242 242 242 241 240 239 238 239 238 238 239
278 279 279 278 275 272 270 268 266 264 264 264 264 265 266 266 266 267 267 268 269 270 271 271 271 271 272 273 275 276 277 278 279 280 280 281 282 282 281 280 278 275 272 269 266 264 261 260 259 259 260 262 264 266 267 268 267 266 265 264 262 260 259 257 256 254 251 250 249 248 246 244 242 241 241 242 242 241 240 240 240 240 241 242 242
280 283 284 283 279 276 271 267 265 263 262 262 263 264 264 264 265 265 266 266 267 269 270 269 269 270 270 272 274 276 277 278 279 281 282 284 285 286 285 285 283 280 277 274 271 269 266 264 263 263 263 264 266 267 268 269 268 267 266 265 263 261 258 256 254 252 249 247 246 245 244 243 241 240 240 241 241 241 240 240 240 241 243 245 246
284 287 284 281 280 277 272 267 264 262 260 260 261 262 262 263 264 264 265 265 266 267 267 267 268 269 270 272 274 276 277 278 279 281 283 285 286 287 288 288 287 285 281 277 275 273 271 269 267 265 264 265 266 267 268 269 268 268 267 266 264 262 260 257 254 251 248 245 243 242 241 239 238 238 238 240 240 239 239 240 241 243 245 248 250
283 283 280 281 281 277 274 270 265 261 258 258 259 261 261 262 262 262 262 263 264 264 265 266 267 268 270 271 273 275 276 278 280 282 283 285 286 287 288 289 289 288 286 283 279 277 274 272 269 267 265 265 265 267 268 269 269 269 268 267 265 263 260 257 254 251 247 243 240 238 237 237 236 236 236 238 238 238 240 243 245 248 250 252 254
279 278 280 282 279 276 275 271 266 261 257 257 258 259 260 260 261 260 260 260 261 262 263 265 266 267 269 270 271 274 275 278 280 282 283 284 285 286 288 289 289 289 288 287 284 281 278 275 272 269 267 266 266 267 268 269 270 270 270 268 266 263 260 257 253 249 245 240 237 236 235 235 234 233 234 236 238 240 243 246 250 252 254 255 256
275 275 276 276 276 277 276 272 266 261 258 257 257 259 259 259 259 258 258 258 259 261 262 263 265 266 267 268 270 272 274 277 279 280 282 282 283 285 286 288 288 289 289 288 287 285 282 279 276 273 270 269 269 270 270 271 272 272 272 270 268 265 261 257 252 246 242 237 234 235 235 235 233 231 233 236 239 242 245 249 252 254 256 257 257
273 273 272 272 276 278 275 270 265 262 259 257 256 257 258 258 257 257 256 257 258 259 261 262 263 264 265 267 269 272 274 276 278 279 280 281 281 283 284 286 287 288 288 288 287 286 284 282 279 277 274 273 273 274 274 274 274 274 272 271 269 266 263 258 251 244 238 235 233 233 234 234 234 232 233 237 240 243 245 249 252 255 257 259 259
273 271 271 274 277 274 270 267 264 262 260 257 256 256 257 257 256 256 256 257 258 258 260 261 262 263 264 266 269 271 274 276 277 277 278 280 280 281 282 284 286 287 288 288 287 285 284 283 281 279 278 277 277 277 277 277 276 275 274 272 270 267 263 257 250 243 237 234 232 232 233 234 235 235 236 239 242 242 243 245 249 253 256 258 260
270 271 273 275 273 267 265 265 263 261 259 256 255 255 255 255 254 254 255 256 257 257 258 260 261 263 264 266 268 270 273 275 276 277 278 279 280 280 281 283 285 286 287 287 287 285 284 283 282 280 279 278 278 279 279 280 280 278 276 273 270 268 264 258 250 242 238 235 234 234 234 236 237 237 237 238 240 240 242 245 248 252 254 257 259
265 268 271 271 268 264 264 265 263 262 260 257 254 253 252 253 252 252 252 254 255 256 257 258 260 262 263 265 268 270 273 275 276 277 278 279 279 279 281 282 284 285 286 286 286 286 285 284 282 281 279 279 279 280 281 281 281 281 279 275 272 268 264 258 251 243 239 237 236 236 236 237 237 236 235 236 238 241 243 247 252 255 256 258 259
260 263 267 267 263 261 264 265 266 265 262 257 253 252 251 251 251 250 251 252 253 255 255 257 259 261 264 266 269 271 273 274 275 276 277 278 279 279 281 282 284 285 286 286 286 286 286 285 284 282 281 280 280 281 283 284 283 283 281 278 275 270 265 258 252 246 242 239 238 238 237 237 237 236 235 236 240 243 246 250 255 257 258 259 260
256 258 261 262 257 257 264 266 267 267 264 259 254 251 249 248 248 247 249 251 252 253 254 256 260 263 265 267 269 270 271 273 274 276 277 278 279 280 282 283 284 285 286 286 286 286 286 285 285 283 282 281 281 282 284 285 285 285 283 281 278 274 267 259 253 248 243 241 240 240 240 239 239 238 237 239 244 246 248 253 256 257 258 258 259
252 254 257 258 255 255 262 265 266 269 268 262 253 249 248 247 247 247 248 250 252 253 255 257 261 263 264 266 267 269 271 273 274 276 277 278 279 280 281 283 284 285 285 286 286 286 286 286 285 284 284 283 283 284 285 285 285 285 284 282 280 276 270 261 254 249 244 242 242 241 241 241 241 241 241 244 248 251 253 254 255 256 257 257 257
249 251 255 256 256 256 261 263 263 266 266 263 257 250 248 248 248 248 249 252 255 255 255 256 258 260 263 264 266 269 271 273 275 277 278 279 279 280 281 283 284 284 285 285 285 286 286 286 286 285 285 285 285 286 286 285 284 283 282 281 278 273 267 260 254 249 244 242 242 242 242 242 243 243 246 249 252 255 257 257 257 257 257 256 255
247 250 253 256 257 257 259 260 259 261 262 263 260 252 248 249 250 251 252 255 255 253 250 252 255 258 261 263 265 268 270 273 275 277 278 279 280 281 282 283 284 284 285 285 285 286 285 285 285 286 286 287 287 288 288 287 286 283 280 279 277 271 264 256 252 248 244 243 242 242 243 243 244 246 249 252 256 259 260 261 261 260 259 258 255
248 250 254 257 256 254 256 257 257 258 260 261 259 252 247 248 250 249 249 249 247 244 244 248 252 255 258 261 264 268 271 274 276 277 278 279 280 282 283 284 284 285 285 285 285 285 285 286 286 286 287 287 288 290 290 290 289 286 281 275 271 269 266 259 252 249 246 244 244 243 244 244 245 248 252 255 257 260 262 263 263 262 261 259 256
250 251 254 255 253 254 257 258 258 258 260 261 260 254 247 246 246 244 242 241 238 237 239 243 247 251 256 263 268 272 275 276 277 277 278 279 280 281 282 283 284 284 285 284 284 285 285 286 286 286 286 286 288 290 291 290 290 288 284 277 264 258 262 261 256 252 248 245 245 244 243 244 247 249 252 255 257 260 261 262 262 261 260 258 255
256 255 254 254 253 256 260 258 257 257 259 260 258 251 245 243 241 239 236 234 233 234 237 241 245 253 262 269 273 276 277 278 278 277 277 278 279 279 281 282 282 283 283 283 283 283 283 283 283 283 283 285 286 288 289 289 289 288 285 280 267 251 251 254 253 253 252 248 244 244 243 244 247 251 253 256 257 259 260 260 260 259 258 256 254
262 260 257 254 254 258 259 256 254 255 258 260 256 248 242 240 238 234 232 231 232 235 237 240 247 259 267 271 275 278 280 281 281 280 279 278 278 278 279 280 281 281 281 281 281 281 281 281 280 280 281 283 284 286 287 288 288 287 284 280 272 259 250 249 247 245 249 249 245 245 246 248 250 253 256 258 259 260 260 260 259 259 258 256 254
265 261 257 252 253 257 257 255 253 255 257 257 253 247 242 238 234 232 231 232 233 233 234 241 252 261 268 274 279 283 285 285 284 282 280 278 277 277 277 278 279 280 280 281 281 280 280 279 279 279 280 281 283 284 285 286 286 285 283 279 275 267 256 249 247 241 239 244 247 247 248 251 254 256 257 258 259 260 261 261 261 261 260 258 256
262 256 252 250 253 258 259 257 255 255 256 254 251 247 242 236 232 228 226 224 222 222 229 241 253 264 274 281 285 287 289 288 284 280 277 275 274 274 275 277 278 279 280 281 281 280 279 279 279 280 280 281 281 282 282 283 283 283 281 278 274 270 263 255 251 245 238 237 244 252 254 255 256 257 258 258 259 260 260 261 262 262 261 260 258
254 249 247 249 255 262 263 260 256 255 254 251 247 244 241 237 231 225 220 217 214 217 227 241 258 272 280 285 288 289 289 287 282 277 273 272 272 272 273 275 277 278 279 279 279 279 279 280 280 281 281 281 281 281 281 281 281 281 280 278 276 273 269 264 258 255 251 244 241 249 257 261 262 262 261 259 259 260 260 260 261 261 261 260 259
244 241 245 253 260 264 262 259 257 255 253 250 246 243 240 235 229 225 220 216 216 221 232 247 264 276 283 287 289 291 290 285 280 275 271 269 270 270 271 273 275 276 277 278 278 279 280 280 281 282 282 282 281 281 280 280 280 279 278 278 277 275 273 271 268 266 266 263 257 254 255 258 260 263 267 267 265 263 263 262 262 262 261 260 259
244 246 255 261 263 263 260 259 258 255 253 250 246 242 240 236 233 230 225 220 222 229 241 254 268 278 284 286 287 290 290 287 281 275 271 269 269 269 270 272 273 274 275 276 277 278 279 280 281 281 281 281 281 280 280 279 279 278 277 277 277 277 276 276 277 277 277 278 277 276 274 270 264 261 262 265 267 269 269 268 267 265 262 261 261
254 258 263 264 263 262 260 260 257 254 252 248 245 243 241 240 238 235 230 228 231 239 247 257 266 274 279 281 283 286 289 290 286 281 276 273 271 271 271 272 272 273 274 275 275 275 276 277 278 279 280 280 279 279 279 278 278 277 277 278 278 278 278 278 280 282 284 284 284 285 287 285 280 276 272 266 265 268 271 271 270 267 264 263 263
Height
3179 3179 3179 3179 3180 3180 3180 3180 3180 3181 3181 3181 3181 3181 3182 3182 3182 3183 3183 3183 3183 3183 3184 3184 3184 3184 3184 3183 3183 3183 3184 3184 3184 3184 3184 3184 3183 3184 3183 3183 3184 3184 3184 3184 3184 3184 3185 3185 3185 3185 3186 3185 3185 3186 3186 3186 3186 3187 3187 3187 3188 3188 3188 3188 3188 3188 3188 3188 3188 3189 3189 3189 3190 3190 3190 3190 3191 3191 3190 3190 3191 3190 3190 3190 3189
3179 3179 3179 3179 3179 3179 3180 3180 3180 3180 3181 3181 3181 3181 3181 3182 3182 3182 3183 3183 3183 3183 3183 3184 3184 3184 3184 3184 3184 3184 3184 3184 3184 3184 3184 3184 3183 3184 3184 3184 3184 3184 3184 3184 3184 3184 3184 3185 3185 3185 3185 3185 3185 3184 3184 3184 3185 3185 3185 3186 3186 3187 3187 3187 3187 3187 3187 3187 3187 3188 3188 3188 3189 3189 3189 3189 3189 3190 3190 3190 3190 3190 3190 3189 3189
3178 3179 3179 3179 3179 3179 3179 3179 3180 3180 3180 3180 3180 3181 3181 3181 3182 3182 3182 3183 3183 3183 3183 3183 3184 3184 3184 3184 3184 3184 3184 3184 3183 3183 3183 3183 3183 3183 3183 3183 3183 3183 3184 3184 3184 3184 3184 3184 3185 3184 3184 3184 3184 3184 3184 3184 3184 3184 3184 3185 3185 3185 3186 3186 3186 3186 3186 3186 3186 3186 3187 3187 3188 3188 3188 3188 3189 3189 3189 3189 3189 3189 3189 3189 3189
3178 3178 3178 3178 3178 3178 3178 3179 3179 3179 3179 3180 3180 3180 3181 3181 3181 3181 3182 3182 3182 3182 3183 3183 3183 3183 3183 3183 3183 3183 3183 3183 3183 3182 3182 3182 3182 3182 3182 3182 3182 3182 3182 3183 3183 3183 3184 3184 3184 3184 3184 3184 3183 3184 3184 3184 3184 3184 3184 3184 3184 3185 3185 3185 3185 3185 3185 3185 3185 3186 3186 3186 3186 3187 3187 3187 3188 3188 3188 3188 3188 3188 3188 3188 3188
3177 3178 3178 3178 3178 3178 3178 3178 3178 3178 3178 3179 3179 3180 3180 3180 3181 3181 3181 3181 3181 3181 3182 3182 3182 3182 3182 3182 3183 3183 3183 3183 3183 3182 3182 3182 3181 3181 3181 3181 3181 3181 3182 3182 3182 3182 3183 3183 3184 3184 3183 3183 3183 3183 3183 3183 3183 3184 3184 3184 3184 3184 3184 3184 3184 3184 3184 3184 3184 3185 3185 3185 3186 3185 3185 3186 3186 3187 3187 3187 3187 3187 3186 3186 3186
3177 3177 3177 3177 3177 3177 3177 3177 3177 3177 3177 3178 3178 3179 3179 3180 3180 3180 3180 3180 3180 3180 3181 3181 3181 3181 3181 3181 3181 3182 3182 3182 3182 3182 3182 3182 3181 3181 3181 3181 3181 3181 3181 3181 3181 3181 3182 3182 3183 3183 3183 3183 3183 3183 3183 3183 3183 3183 3183 3183 3183 3183 3183 3183 3183 3183 3183 3183 3183 3184 3184 3184 3185 3184 3184 3185 3185 3185 3185 3186 3185 3185 3185 3185 3185
3176 3176 3176 3177 3177 3177 3177 3177 3177 3177 3177 3177 3177 3178 3178 3179 3179 3179 3179 3179 3179 3179 3180 3180 3180 3180 3180 3180 3180 3180 3181 3181 3181 3181 3181 3181 3181 3181 3180 3180 3180 3180 3180 3181 3181 3181 3181 3181 3182 3182 3182 3182 3182 3182 3182 3182 3182 3182 3182 3182 3182 3182 3182 3182 3182 3182 3182 3182 3182 3182 3183 3183 3183 3183 3183 3183 3184 3184 3184 3184 3184 3184 3184 3184 3184
3174 3175 3175 3176 3176 3176 3176 3176 3176 3177 3177 3177 3177 3177 3178 3178 3178 3179 3178 3178 3178 3179 3179 3179 3180 3180 3180 3180 3179 3179 3180 3180 3180 3180 3180 3180 3180 3180 3180 3179 3179 3179 3179 3179 3180 3180 3180 3180 3181 3180 3180 3180 3180 3181 3181 3181 3181 3181 3181 3181 3181 3181 3181 3181 3181 3181 3181 3182 3182 3181 3182 3182 3182 3182 3182 3182 3182 3182 3182 3182 3182 3183 3183 3183 3183
3173 3173 3174 3174 3175 3175 3175 3175 3176 3176 3176 3177 3177 3177 3177 3177 3178 3178 3178 3178 3178 3178 3178 3179 3179 3179 3179 3179 3179 3179 3179 3179 3179 3179 3179 3179 3179 3179 3179 3178 3178 3178 3178 3178 3178 3179 3179 3179 3179 3179 3179 3179 3179 3179 3179 3179 3179 3179 3180 3180 3180 3180 3180 3180 3180 3180 3180 3180 3180 3180 3180 3180 3180 3181 3180 3181 3181 3181 3181 3180 3181 3181 3182 3182 3182
3171 3172 3172 3173 3173 3174 3174 3174 3175 3175 3175 3176 3176 3177 3177 3177 3177 3177 3177 3177 3177 3177 3177 3177 3178 3178 3178 3178 3178 3178 3178 3178 3178 3178 3178 3178 3178 3177 3177 3177 3177 3177 3177 3177 3177 3177 3177 3178 3178 3178 3178 3177 3177 3177 3177 3177 3177 3178 3178 3178 3178 3179 3179 3179 3178 3178 3178 3179 3179 3179 3179 3179 3179 3179 3179 3179 3179 3179 3179 3179 3179 3179 3180 3180 3181
3169 3169 3170 3171 3171 3172 3172 3173 3173 3174 3174 3174 3175 3175 3176 3176 3176 3177 3177 3177 3177 3177 3177 3177 3177 3177 3177 3177 3177 3177 3177 3177 3176 3176 3176 3176 3176 3176 3176 3176 3176 3176 3176 3176 3176 3176 3176 3176 3176 3176 3176 3176 3176 3176 3176 3175 3176 3176 3176 3176 3177 3177 3177 3177 3177 3177 3177 3177 3177 3177 3177 3177 3177 3177 3177 3177 3177 3177 3177 3177 3177 3178 3178 3178 3179
3168 3168 3168 3169 3169 3170 3170 3171 3171 3172 3172 3173 3173 3174 3174 3174 3175 3175 3175 3176 3176 3176 3176 3176 3176 3176 3176 3176 3176 3176 3176 3175 3175 3175 3175 3175 3174 3174 3174 3174 3174 3173 3173 3173 3173 3174 3174 3174 3174 3174 3174 3174 3174 3174 3174 3174 3174 3174 3174 3174 3175 3175 3175 3176 3176 3175 3175 3175 3175 3175 3175 3175 3175 3175 3175 3175 3175 3176 3176 3176 3176 3176 3176 3176 3177
3167 3167 3167 3167 3168 3168 3168 3169 3169 3170 3170 3171 3171 3172 3172 3172 3173 3173 3174 3174 3174 3175 3175 3175 3175 3175 3175 3175 3175 3175 3174 3174 3174 3174 3173 3173 3173 3173 3173 3172 3172 3172 3172 3171 3171 3171 3172 3172 3172 3172 3173 3173 3173 3173 3173 3173 3173 3172 3173 3173 3173 3173 3173 3174 3174 3174 3174 3174 3174 3173 3174 3174 3173 3173 3173 3173 3174 3174 3174 3174 3174 3174 3174 3174 3175
3166 3166 3166 3166 3166 3166 3167 3167 3168 3168 3168 3169 3169 3169 3170 3170 3170 3171 3171 3172 3172 3173 3173 3173 3173 3173 3173 3173 3173 3173 3173 3173 3172 3172 3172 3172 3172 3172 3171 3171 3171 3171 3171 3170 3170 3170 3170 3170 3170 3170 3171 3171 3171 3171 3171 3171 3171 3171 3171 3171 3171 3171 3171 3172 3172 3172 3172 3172 3172 3172 3172 3172 3172 3172 3172 3172 3173 3173 3173 3173 3173 3172 3172 3173 3173
3165 3164 3164 3164 3164 3165 3165 3165 3166 3166 3166 3167 3167 3168 3168 3168 3168 3168 3169 3169 3170 3171 3171 3171 3171 3171 3171 3171 3171 3171 3171 3171 3171 3171 3171 3171 3170 3170 3170 3170 3170 3170 3170 3170 3169 3169 3169 3169 3169 3169 3169 3169 3169 3169 3169 3169 3169 3169 3169 3169 3169 3169 3169 3170 3170 3170 3170 3170 3170 3170 3170 3170 3170 3170 3171 3171 3171 3172 3172 3172 3171 3171 3171 3171 3171
3163 3163 3163 3163 3163 3163 3163 3163 3164 3164 3165 3165 3165 3166 3166 3166 3166 3166 3167 3167 3168 3168 3169 3169 3169 3169 3169 3169 3169 3169 3169 3169 3169 3169 3169 3169 3169 3169 3169 3169 3169 3169 3169 3168 3168 3168 3168 3168 3167 3167 3167 3167 3167 3167 3167 3167 3167 3167 3167 3167 3167 3167 3167 3167 3167 3168 3168 3168 3168 3168 3168 3168 3168 3168 3169 3169 3169 3169 3169 3170 3170 3170 3170 3170 3170
3162 3162 3162 3162 3162 3162 3162 3162 3162 3162 3163 3163 3163 3164 3164 3164 3164 3165 3165 3166 3166 3166 3166 3167 3167 3167 3166 3166 3167 3167 3167 3167 3167 3167 3167 3167 3167 3167 3167 3167 3167 3167 3167 3167 3167 3167 3167 3166 3166 3166 3166 3165 3165 3165 3165 3165 3165 3165 3165 3165 3165 3165 3165 3165 3165 3165 3165 3165 3166 3166 3166 3166 3166 3167 3167 3167 3167 3167 3168 3168 3168 3168 3168 3168 3168
3160 3160 3160 3160 3160 3160 3160 3160 3160 3160 3161 3161 3161 3162 3162 3162 3163 3163 3163 3164 3164 3164 3165 3165 3165 3165 3165 3165 3165 3165 3165 3165 3165 3165 3165 3165 3165 3165 3165 3165 3165 3165 3165 3165 3165 3165 3165 3165 3164 3164 3164 3164 3163 3163 3163 3163 3163 3163 3163 3163 3163 3163 3163 3163 3163 3163 3163 3163 3163 3164 3164 3164 3164 3164 3165 3165 3165 3165 3166 3166 3166 3166 3166 3166 3166
3159 3158 3158 3159 3159 3158 3159 3159 3158 3159 3159 3159 3159 3160 3160 3161 3161 3161 3162 3162 3162 3163 3163 3163 3163 3163 3163 3163 3163 3163 3163 3163 3163 3163 3163 3163 3163 3163 3163 3163 3163 3163 3163 3163 3163 3163 3163 3162 3162 3162 3162 3162 3161 3161 3161 3161 3161 3161 3161 3161 3161 3161 3161 3161 3161 3161 3161 3161 3161 3161 3161 3161 3162 3162 3162 3163 3163 3163 3163 3164 3164 3164 3164 3164 3164
3156 3156 3156 3156 3156 3156 3156 3157 3157 3157 3157 3157 3157 3158 3158 3158 3159 3160 3160 3161 3161 3161 3161 3161 3162 3162 3162 3162 3162 3162 3162 3161 3161 3161 3161 3161 3161 3161 3161 3161 3161 3161 3161 3161 3161 3161 3160 3160 3160 3160 3160 3159 3159 3159 3159 3159 3159 3159 3159 3159 3159 3159 3159 3159 3159 3159 3159 3159 3159 3159 3159 3159 3159 3160 3160 3160 3161 3161 3161 3161 3161 3161 3162 3162 3162
3154 3154 3154 3154 3154 3154 3154 3154 3154 3154 3155 3155 3155 3155 3156 3156 3157 3157 3158 3159 3159 3159 3159 3159 3160 3160 3160 3160 3160 3160 3160 3160 3160 3159 3159 3159 3159 3159 3159 3159 3159 3159 3159 3159 3159 3159 3158 3158 3158 3158 3157 3157 3157 3157 3157 3157 3157 3157 3156 3156 3157 3157 3157 3157 3156 3156 3156 3156 3156 3156 3156 3156 3157 3157 3158 3158 3158 3159 3159 3159 3159 3159 3159 3159 3159
3153 3152 3152 3152 3152 3152 3152 3152 3152 3152 3152 3152 3153 3153 3153 3154 3154 3155 3156 3156 3157 3157 3157 3157 3157 3158 3158 3158 3158 3158 3158 3158 3158 3158 3158 3157 3157 3157 3157 3157 3157 3156 3156 3157 3157 3156 3156 3156 3156 3156 3155 3155 3155 3155 3155 3155 3155 3154 3154 3154 3154 3154 3154 3154 3154 3154 3154 3154 3154 3154 3154 3154 3154 3155 3155 3156 3156 3156 3156 3156 3157 3157 3157 3157 3157
3151 3151 3151 3150 3150 3149 3149 3149 3149 3149 3150 3150 3150 3150 3151 3151 3152 3152 3153 3153 3154 3154 3154 3155 3155 3155 3155 3156 3156 3156 3156 3156 3156 3156 3156 3155 3155 3155 3155 3154 3154 3154 3154 3154 3154 3154 3154 3154 3154 3154 3154 3153 3153 3153 3152 3152 3152 3152 3152 3152 3152 3152 3152 3152 3152 3151 3151 3151 3151 3151 3152 3152 3152 3153 3153 3153 3154 3154 3154 3154 3154 3155 3155 3155 3155
3150 3149 3149 3148 3148 3148 3148 3147 3147 3147 3147 3147 3147 3148 3148 3148 3149 3149 3150 3150 3151 3151 3152 3152 3152 3152 3153 3153 3153 3153 3153 3153 3153 3153 3153 3153 3153 3153 3152 3152 3152 3151 3151 3151 3151 3151 3151 3151 3151 3151 3151 3151 3151 3150 3150 3150 3149 3149 3149 3149 3149 3149 3149 3149 3149 3149 3149 3149 3149 3149 3149 3150 3150 3150 3151 3151 3152 3152 3152 3152 3152 3152 3152 3153 3152
3147 3146 3146 3147 3146 3146 3146 3145 3145 3145 3144 3145 3145 3145 3145 3145 3146 3146 3147 3147 3147 3148 3149 3149 3149 3149 3150 3150 3150 3150 3150 3150 3151 3151 3151 3151 3151 3150 3150 3150 3149 3149 3149 3148 3148 3148 3148 3148 3148 3148 3148 3148 3148 3148 3148 3147 3147 3147 3147 3147 3147 3147 3146 3146 3146 3146 3147 3147 3147 3147 3147 3147 3148 3148 3148 3149 3149 3150 3150 3150 3150 3150 3150 3150 3150
3144 3144 3145 3144 3144 3143 3143 3143 3142 3142 3142 3142 3142 3142 3142 3142 3143 3143 3144 3144 3144 3145 3146 3146 3146 3146 3147 3147 3147 3147 3147 3147 3148 3148 3148 3148 3148 3148 3147 3147 3147 3146 3146 3146 3145 3145 3145 3145 3145 3145 3145 3145 3145 3145 3145 3145 3145 3145 3144 3144 3144 3144 3144 3144 3144 3144 3144 3144 3144 3144 3144 3145 3145 3145 3146 3146 3147 3147 3147 3147 3147 3147 3147 3147 3147
3141 3141 3142 3142 3141 3141 3140 3140 3140 3140 3139 3139 3139 3139 3140 3140 3140 3140 3141 3141 3141 3142 3143 3143 3143 3144 3144 3144 3145 3145 3145 3145 3145 3145 3145 3145 3145 3145 3145 3144 3144 3143 3143 3143 3143 3142 3142 3142 3142 3142 3142 3142 3142 3142 3142 3143 3142 3142 3142 3141 3141 3141 3141 3141 3141 3141 3141 3141 3141 3141 3142 3142 3142 3143 3143 3144 3144 3144 3145 3145 3145 3145 3145 3145 3144
3139 3139 3139 3139 3138 3138 3138 3137 3137 3137 3137 3136 3136 3136 3137 3137 3137 3137 3138 3138 3139 3139 3140 3140 3140 3141 3142 3142 3142 3142 3142 3142 3142 3142 3142 3142 3142 3142 3142 3142 3141 3141 3140 3140 3140 3140 3139 3139 3139 3139 3139 3139 3139 3139 3139 3139 3139 3139 3138 3138 3138 3138 3138 3138 3138 3138 3138 3138 3138 3139 3139 3140 3140 3140 3141 3141 3141 3142 3142 3142 3142 3142 3142 3142 3142
3136 3137 3136 3135 3135 3135 3134 3134 3134 3134 3134 3133 3133 3134 3134 3134 3134 3135 3135 3136 3136 3137 3137 3137 3138 3138 3138 3139 3138 3138 3139 3139 3139 3139 3139 3139 3139 3139 3139 3139 3138 3138 3138 3137 3137 3137 3137 3137 3136 3136 3136 3136 3136 3136 3136 3136 3136 3135 3135 3135 3135 3135 3135 3135 3135 3135 3135 3135 3136 3136 3137 3137 3137 3137 3138 3138 3138 3139 3139 3139 3139 3139 3139 3139 3139
3134 3134 3132 3132 3132 3131 3131 3131 3131 3131 3130 3130 3130 3131 3131 3131 3132 3132 3133 3133 3134 3134 3134 3134 3135 3135 3135 3135 3135 3135 3135 3135 3136 3136 3136 3136 3136 3136 3135 3135 3135 3135 3135 3135 3135 3134 3134 3134 3134 3133 3133 3133 3133 3133 3133 3132 3132 3132 3132 3132 3132 3132 3132 3131 3132 3132 3132 3133 3133 3133 3134 3134 3134 3134 3135 3135 3135 3136 3136 3137 3137 3137 3137 3137 3136
3131 3130 3129 3129 3128 3127 3128 3128 3128 3127 3127 3127 3127 3127 3128 3128 3129 3129 3130 3131 3131 3131 3131 3131 3132 3132 3132 3133 3132 3132 3132 3132 3133 3133 3133 3133 3133 3133 3132 3132 3132 3132 3132 3132 3132 3132 3132 3132 3131 3131 3130 3130 3130 3130 3130 3129 3129 3129 3129 3129 3129 3129 3128 3128 3129 3129 3130 3130 3130 3131 3131 3131 3131 3132 3132 3132 3132 3133 3134 3134 3135 3135 3134 3134 3134
3127 3127 3127 3125 3124 3123 3124 3124 3123 3123 3123 3123 3124 3124 3125 3125 3125 3126 3126 3127 3128 3128 3128 3129 3129 3129 3129 3130 3129 3129 3130 3130 3130 3130 3130 3130 3130 3130 3129 3129 3129 3129 3129 3129 3129 3129 3129 3129 3129 3129 3128 3128 3128 3128 3127 3127 3126 3126 3126 3126 3126 3126 3125 3125 3126 3126 3127 3127 3128 3128 3128 3128 3129 3129 3129 3129 3130 3130 3131 3131 3132 3132 3131 3131 3131
3124 3123 3122 3121 3121 3120 3119 3119 3119 3118 3119 3119 3120 3120 3121 3121 3121 3122 3123 3124 3124 3124 3125 3125 3126 3126 3126 3126 3127 3127 3127 3127 3127 3127 3127 3127 3127 3126 3126 3126 3125 3125 3125 3126 3126 3126 3126 3126 3126 3126 3126 3125 3125 3125 3124 3124 3123 3123 3123 3123 3123 3123 3123 3122 3123 3123 3124 3124 3125 3125 3125 3126 3126 3126 3126 3126 3127 3127 3128 3128 3129 3129 3128 3128 3128
3119 3118 3117 3118 3117 3116 3115 3114 3114 3114 3115 3115 3115 3116 3117 3117 3118 3118 3119 3120 3120 3121 3122 3122 3122 3122 3123 3123 3123 3124 3124 3124 3124 3124 3124 3124 3124 3123 3123 3123 3122 3122 3122 3122 3122 3123 3123 3123 3123 3122 3122 3122 3122 3122 3121 3121 3120 3120 3120 3120 3120 3120 3120 3120 3120 3120 3121 3121 3122 3122 3122 3123 3123 3123 3122 3123 3123 3124 3124 3125 3125 3125 3125 3125 3125
3114 3113 3113 3113 3112 3111 3111 3110 3110 3110 3110 3110 3111 3112 3113 3113 3114 3114 3115 3116 3117 3118 3118 3118 3118 3118 3119 3120 3120 3120 3120 3121 3121 3121 3121 3121 3121 3120 3120 3119 3119 3119 3119 3119 3119 3119 3119 3119 3119 3118 3118 3118 3118 3118 3118 3118 3117 3116 3116 3116 3116 3117 3117 3117 3117 3118 3118 3118 3119 3119 3120 3120 3120 3119 3119 3120 3120 3121 3121 3121 3122 3122 3122 3122 3122
3109 3108 3108 3108 3107 3107 3107 3106 3105 3106 3106 3106 3107 3107 3108 3108 3109 3110 3111 3112 3113 3114 3114 3114 3114 3115 3115 3116 3116 3117 3117 3117 3117 3117 3117 3117 3117 3116 3116 3116 3116 3116 3115 3115 3115 3115 3116 3116 3115 3115 3114 3114 3114 3114 3114 3114 3114 3113 3113 3113 3113 3113 3113 3114 3114 3115 3115 3116 3116 3116 3117 3117 3117 3116 3116 3117 3117 3118 3118 3118 3118 3117 3117 3117 3118
3104 3103 3103 3103 3103 3103 3102 3102 3102 3102 3101 3102 3102 3102 3103 3104 3105 3106 3107 3108 3109 3110 3111 3110 3111 3111 3112 3113 3113 3113 3114 3114 3114 3114 3114 3114 3113 3113 3112 3112 3112 3112 3112 3111 3111 3111 3111 3111 3111 3111 3110 3110 3110 3110 3110 3110 3110 3110 3109 3109 3109 3109 3110 3110 3111 3112 3112 3113 3113 3113 3113 3114 3114 3114 3114 3114 3114 3115 3115 3114 3114 3113 3113 3113 3113
3099 3098 3098 3098 3098 3098 3098 3098 3097 3097 3097 3097 3097 3097 3098 3099 3099 3101 3102 3103 3104 3105 3106 3107 3107 3108 3109 3109 3110 3110 3110 3110 3110 3110 3110 3110 3110 3109 3108 3108 3108 3108 3107 3107 3107 3107 3107 3107 3107 3107 3107 3106 3106 3107 3106 3106 3106 3106 3106 3105 3105 3105 3106 3106 3107 3108 3109 3109 3110 3110 3110 3110 3110 3110 3110 3111 3111 3111 3111 3110 3110 3109 3109 3109 3109
3094 3093 3093 3093 3093 3093 3093 3093 3093 3093 3092 3092 3092 3092 3093 3093 3094 3095 3097 3098 3100 3102 3103 3104 3104 3105 3105 3106 3106 3106 3106 3106 3106 3106 3106 3106 3106 3105 3105 3104 3104 3104 3104 3103 3103 3103 3103 3102 3103 3102 3102 3102 3102 3102 3103 3103 3103 3103 3103 3101 3101 3101 3101 3102 3103 3104 3105 3106 3106 3106 3107 3107 3107 3107 3107 3107 3107 3107 3107 3106 3105 3105 3104 3104 3104
3088 3088 3088 3088 3088 3089 3089 3089 3089 3088 3087 3087 3087 3087 3088 3088 3089 3090 3092 3095 3097 3099 3100 3101 3101 3101 3102 3102 3102 3102 3102 3102 3102 3102 3102 3102 3102 3101 3101 3101 3101 3100 3100 3099 3099 3099 3099 3099 3098 3098 3098 3097 3097 3098 3098 3098 3099 3099 3099 3098 3096 3096 3096 3097 3099 3099 3100 3101 3102 3102 3103 3103 3103 3103 3103 3103 3103 3103 3103 3102 3101 3101 3100 3100 3100
3083 3083 3083 3084 3084 3085 3085 3085 3085 3084 3083 3082 3082 3082 3083 3084 3086 3087 3090 3092 3094 3095 3096 3097 3098 3098 3098 3098 3099 3099 3098 3099 3099 3098 3098 3098 3098 3097 3097 3097 3097 3097 3096 3095 3095 3095 3095 3095 3095 3095 3094 3093 3092 3093 3093 3094 3094 3094 3095 3094 3092 3091 3091 3093 3094 3094 3095 3096 3097 3098 3098 3099 3099 3099 3099 3099 3099 3099 3098 3098 3097 3097 3096 3095 3095
3078 3079 3079 3080 3080 3080 3080 3080 3080 3080 3079 3079 3078 3079 3080 3081 3083 3085 3086 3088 3089 3090 3092 3093 3093 3094 3094 3094 3095 3095 3095 3095 3095 3095 3095 3095 3094 3094 3093 3093 3093 3092 3092 3091 3091 3091 3091 3091 3091 3091 3090 3089 3088 3088 3088 3088 3088 3089 3090 3091 3090 3087 3087 3088 3089 3089 3090 3091 3092 3093 3094 3094 3094 3094 3094 3094 3094 3093 3093 3093 3093 3092 3092 3091 3091
3074 3074 3075 3075 3075 3075 3076 3076 3076 3076 3076 3075 3075 3076 3077 3078 3079 3081 3082 3083 3084 3086 3087 3088 3089 3089 3090 3090 3091 3091 3091 3091 3091 3091 3091 3091 3091 3090 3090 3089 3089 3088 3088 3087 3087 3086 3086 3086 3086 3086 3086 3086 3085 3084 3083 3083 3083 3083 3083 3085 3087 3085 3083 3083 3085 3085 3086 3087 3088 3089 3089 3090 3090 3090 3090 3089 3089 3088 3088 3088 3087 3087 3086 3086 3086
3069 3069 3070 3070 3071 3071 3071 3072 3072 3072 3072 3071 3072 3072 3072 3073 3074 3075 3076 3078 3080 3081 3083 3084 3085 3086 3087 3087 3087 3087 3087 3087 3087 3087 3087 3087 3087 3086 3086 3085 3085 3084 3084 3083 3083 3083 3082 3082 3082 3082 3082 3082 3081 3080 3078 3078 3079 3079 3078 3079 3081 3082 3080 3079 3080 3081 3081 3083 3084 3084 3085 3085 3085 3085 3085 3085 3084 3084 3083 3083 3082 3082 3081 3081 3081
3064 3064 3065 3066 3067 3067 3067 3067 3068 3068 3068 3068 3067 3067 3067 3068 3069 3071 3072 3074 3076 3078 3080 3081 3083 3083 3084 3084 3083 3083 3083 3083 3083 3083 3083 3083 3082 3082 3082 3081 3081 3080 3080 3079 3079 3079 3078 3078 3078 3078 3079 3078 3078 3076 3074 3073 3073 3074 3074 3074 3075 3076 3076 3076 3076 3077 3077 3078 3080 3080 3080 3080 3081 3081 3080 3079 3079 3079 3079 3078 3077 3076 3076 3076 3076
3061 3061 3062 3062 3062 3063 3063 3063 3063 3063 3064 3063 3063 3063 3064 3065 3066 3067 3069 3072 3074 3076 3078 3079 3080 3080 3080 3080 3079 3079 3079 3079 3079 3079 3079 3079 3078 3078 3078 3077 3077 3076 3076 3076 3075 3075 3074 3074 3074 3074 3075 3075 3074 3073 3071 3070 3069 3069 3069 3069 3069 3070 3071 3072 3071 3072 3074 3074 3074 3075 3075 3075 3075 3075 3075 3074 3074 3074 3073 3073 3072 3072 3071 3071 3071
3057 3057 3058 3058 3058 3059 3059 3059 3059 3059 3059 3059 3060 3060 3061 3062 3063 3065 3067 3069 3071 3074 3075 3076 3076 3076 3076 3076 3076 3076 3076 3076 3076 3076 3075 3075 3074 3074 3074 3073 3073 3072 3072 3072 3071 3071 3070 3070 3070 3070 3070 3070 3070 3069 3068 3067 3065 3064 3064 3064 3064 3064 3065 3066 3066 3067 3069 3070 3070 3069 3069 3070 3070 3070 3070 3069 3069 3069 3068 3068 3067 3067 3067 3067 3066
3053 3053 3053 3054 3054 3055 3055 3055 3055 3055 3056 3056 3057 3058 3059 3060 3061 3062 3064 3066 3068 3070 3071 3071 3072 3072 3073 3073 3073 3073 3073 3073 3072 3072 3072 3071 3070 3070 3070 3069 3069 3068 3068 3068 3067 3067 3066 3066 3065 3065 3066 3066 3066 3066 3065 3064 3063 3061 3060 3060 3059 3059 3059 3059 3060 3060 3062 3064 3067 3066 3064 3063 3063 3063 3063 3064 3065 3064 3063 3063 3063 3062 3062 3062 3061
3048 3049 3049 3050 3050 3051 3051 3051 3052 3052 3053 3053 3054 3055 3056 3058 3059 3059 3061 3063 3064 3065 3066 3067 3068 3068 3069 3069 3070 3070 3070 3070 3070 3069 3068 3067 3066 3066 3066 3065 3064 3064 3064 3064 3063 3063 3062 3062 3061 3061 3061 3062 3062 3062 3061 3061 3060 3059 3057 3056 3055 3054 3054 3053 3053 3053 3054 3055 3058 3061 3061 3060 3059 3059 3058 3058 3058 3058 3058 3058 3057 3057 3057 3056 3055
3045 3045 3046 3046 3046 3047 3048 3048 3049 3049 3050 3050 3051 3053 3054 3055 3056 3057 3058 3059 3060 3061 3062 3063 3063 3064 3065 3066 3067 3067 3067 3067 3067 3066 3065 3064 3063 3062 3062 3062 3061 3060 3060 3060 3059 3059 3058 3058 3058 3057 3057 3057 3058 3058 3058 3057 3056 3055 3054 3053 3052 3051 3050 3048 3047 3047 3047 3046 3047 3049 3051 3052 3053 3055 3056 3054 3052 3051 3051 3051 3051 3051 3051 3050 3049
3042 3042 3042 3043 3043 3044 3044 3045 3045 3046 3046 3047 3049 3050 3052 3052 3054 3055 3056 3056 3056 3057 3058 3058 3058 3059 3060 3062 3063 3064 3064 3063 3063 3063 3062 3061 3060 3059 3059 3058 3057 3057 3056 3056 3055 3054 3054 3053 3053 3053 3052 3053 3053 3054 3054 3053 3052 3052 3051 3050 3049 3048 3046 3045 3044 3043 3042 3041 3040 3041 3041 3041 3042 3045 3048 3050 3050 3047 3046 3045 3045 3045 3045 3044 3042